Location: Cronhütte
(48.9135°N, 9.6869°E)
Time: 03:12:45
(UTC+00:00)

Geosat - Pass Details

Date: 23 May 2024
Orbit: 760 x 763 km, 108.1° (Epoch: 13 June)

Event Time Altitude Azimuth Distance (km) Brightness Sun altitude
Rises 02:24:08 0° 149° (SSE) 3,212 7.1 -9.0°
Reaches altitude 10° 02:26:23 10° 150° (SSE) 2,291 6.3 -8.8°
Maximum altitude 02:31:23 88° 236° (SW) 770 4.0 -8.2°
Drops below altitude 10° 02:36:26 10° 330° (NNW) 2,308 6.7 -7.6°
Sets 02:38:44 0° 331° (NNW) 3,239 7.4 -7.4°
